• în România
  • Lista ţărilor
  • Pe 7 zile
  • Temperatura apei
  • Hartă satelitară
  • Meteo pe hartă
  • Widget-uri
  • user-avatar
    Intrare

    Meteo pe oră la Kotovka

    Astăzi, 17 Octombrie, Miercuri

    Timp Temperatura Precipitaţii Vânt Presiune Umiditate
    00:00 +11°C° 0 mm 3 m/s 747 mmHg 80%
    01:00 +10°C° 0 mm 3 m/s 747 mmHg 82%
    02:00 +10°C° 0 mm 3 m/s 747 mmHg 84%
    03:00 +10°C° 0 mm 3 m/s 747 mmHg 86%
    04:00 +9°C° 0 mm 3 m/s 747 mmHg 88%
    05:00 +9°C° 0 mm 3 m/s 747 mmHg 89%
    06:00 +9°C° 0 mm 3 m/s 747 mmHg 90%
    07:00 +10°C° 0 mm 3 m/s 747 mmHg 87%
    08:00 +10°C° 0 mm 3 m/s 747 mmHg 84%
    09:00 +11°C° 0 mm 3 m/s 747 mmHg 81%
    10:00 +12°C° 0 mm 3 m/s 747 mmHg 76%
    11:00 +14°C° 0 mm 3 m/s 747 mmHg 70%
    12:00 +16°C° 0 mm 3 m/s 747 mmHg 65%
    13:00 +16°C° 0 mm 3 m/s 747 mmHg 63%
    14:00 +17°C° 0 mm 3 m/s 747 mmHg 61%
    15:00 +17°C° 0 mm 3 m/s 747 mmHg 60%
    16:00 +16°C° 0 mm 2 m/s 747 mmHg 65%
    17:00 +15°C° 0 mm 2 m/s 747 mmHg 70%
    18:00 +14°C° 0 mm 1 m/s 747 mmHg 75%
    19:00 +13°C° 0 mm 1 m/s 747 mmHg 77%
    20:00 +13°C° 0 mm 1 m/s 747 mmHg 80%
    21:00 +12°C° 0 mm 1 m/s 747 mmHg 82%
    22:00 +12°C° 0 mm 1 m/s 747 mmHg 83%
    23:00 +11°C° 0 mm 1 m/s 747 mmHg 84%

    Mâine, 18 Octombrie, Joi

    Timp Temperatura Precipitaţii Vânt Presiune Umiditate
    00:00 +10°C° 0 mm 0 m/s 747 mmHg 85%
    01:00 +11°C° 0 mm 1 m/s 747 mmHg 85%
    02:00 +10°C° 0 mm 1 m/s 747 mmHg 86%
    03:00 +10°C° 0 mm 1 m/s 747 mmHg 86%
    04:00 +10°C° 0 mm 1 m/s 747 mmHg 87%
    05:00 +10°C° 0 mm 1 m/s 746 mmHg 87%
    06:00 +10°C° 0 mm 1 m/s 746 mmHg 88%
    07:00 +10°C° 0 mm 1 m/s 746 mmHg 86%
    08:00 +11°C° 0 mm 1 m/s 746 mmHg 84%
    09:00 +10°C° 0 mm 2 m/s 746 mmHg 82%
    10:00 +13°C° 0 mm 2 m/s 746 mmHg 76%
    11:00 +15°C° 0 mm 2 m/s 746 mmHg 70%
    12:00 +16°C° 0 mm 2 m/s 746 mmHg 64%
    13:00 +17°C° 0 mm 2 m/s 746 mmHg 62%
    14:00 +17°C° 0 mm 2 m/s 745 mmHg 61%
    15:00 +18°C° 0 mm 2 m/s 745 mmHg 60%
    16:00 +16°C° 0 mm 2 m/s 745 mmHg 65%
    17:00 +15°C° 0 mm 2 m/s 744 mmHg 71%
    18:00 +14°C° 0 mm 2 m/s 744 mmHg 76%
    19:00 +14°C° 0 mm 2 m/s 744 mmHg 78%
    20:00 +13°C° 0 mm 2 m/s 744 mmHg 80%
    21:00 +13°C° 0 mm 2 m/s 744 mmHg 82%
    22:00 +13°C° 0 mm 2 m/s 744 mmHg 84%
    23:00 +12°C° 0 mm 2 m/s 744 mmHg 85%

    Poimâine, 19 Octombrie, Vineri

    Timp Temperatura Precipitaţii Vânt Presiune Umiditate
    00:00 +12°C° 0 mm 2 m/s 743 mmHg 86%
    01:00 +11°C° 0 mm 3 m/s 743 mmHg 87%
    02:00 +11°C° 0 mm 3 m/s 743 mmHg 87%
    03:00 +11°C° 0 mm 3 m/s 743 mmHg 88%
    04:00 +10°C° 0 mm 3 m/s 742 mmHg 88%
    05:00 +10°C° 0 mm 3 m/s 742 mmHg 89%
    06:00 +10°C° 0 mm 3 m/s 742 mmHg 89%
    07:00 +11°C° 0 mm 3 m/s 742 mmHg 86%
    08:00 +11°C° 0 mm 3 m/s 742 mmHg 83%
    09:00 +12°C° 0 mm 3 m/s 741 mmHg 80%
    10:00 +13°C° 0 mm 3 m/s 741 mmHg 75%
    11:00 +14°C° 0 mm 3 m/s 741 mmHg 70%
    12:00 +17°C° 0 mm 3 m/s 741 mmHg 65%
    13:00 +17°C° 0 mm 4 m/s 741 mmHg 64%
    14:00 +18°C° 0 mm 4 m/s 740 mmHg 62%
    15:00 +18°C° 0 mm 4 m/s 740 mmHg 61%
    16:00 +17°C° 0 mm 3 m/s 740 mmHg 66%
    17:00 +16°C° 0 mm 3 m/s 740 mmHg 71%
    18:00 +14°C° 0 mm 2 m/s 739 mmHg 76%
    19:00 +14°C° 0 mm 2 m/s 739 mmHg 78%
    20:00 +13°C° 0 mm 2 m/s 739 mmHg 80%
    21:00 +13°C° 0 mm 2 m/s 740 mmHg 82%
    22:00 +13°C° 0 mm 2 m/s 740 mmHg 85%
    23:00 +12°C° 0 mm 2 m/s 740 mmHg 87%

    20 Octombrie, Sâmbătă

    Timp Temperatura Precipitaţii Vânt Presiune Umiditate
    00:00 +12°C° 0 mm 2 m/s 739 mmHg 90%
    01:00 +10°C° 0 mm 2 m/s 740 mmHg 91%
    02:00 +10°C° 0 mm 3 m/s 740 mmHg 93%
    03:00 +10°C° 0 mm 3 m/s 740 mmHg 94%
    04:00 +9°C° 0 mm 3 m/s 740 mmHg 92%
    05:00 +9°C° 0 mm 3 m/s 740 mmHg 91%
    06:00 +8°C° 0 mm 4 m/s 740 mmHg 89%
    07:00 +7°C° 0 mm 4 m/s 741 mmHg 85%
    08:00 +7°C° 0 mm 4 m/s 741 mmHg 81%
    09:00 +7°C° 0 mm 4 m/s 741 mmHg 77%
    10:00 +8°C° 0 mm 4 m/s 742 mmHg 72%
    11:00 +8°C° 0 mm 4 m/s 742 mmHg 66%
    12:00 +10°C° 0 mm 4 m/s 742 mmHg 61%
    13:00 +10°C° 0 mm 4 m/s 742 mmHg 59%
    14:00 +11°C° 0 mm 4 m/s 742 mmHg 58%
    15:00 +11°C° 0 mm 3 m/s 742 mmHg 56%
    16:00 +10°C° 0 mm 3 m/s 742 mmHg 61%
    17:00 +9°C° 0 mm 3 m/s 743 mmHg 66%
    18:00 +8°C° 0 mm 2 m/s 743 mmHg 70%
    19:00 +7°C° 0 mm 2 m/s 743 mmHg 73%
    20:00 +7°C° 0 mm 2 m/s 743 mmHg 76%
    21:00 +6°C° 0 mm 2 m/s 743 mmHg 78%
    22:00 +6°C° 0 mm 2 m/s 743 mmHg 81%
    23:00 +6°C° 0 mm 2 m/s 743 mmHg 83%

    21 Octombrie, Duminică

    Timp Temperatura Precipitaţii Vânt Presiune Umiditate
    00:00 +5°C° 0 mm 2 m/s 743 mmHg 85%
    01:00 +5°C° 0 mm 2 m/s 743 mmHg 87%
    02:00 +6°C° 0 mm 1 m/s 743 mmHg 89%
    03:00 +5°C° 0 mm 1 m/s 743 mmHg 91%
    04:00 +5°C° 0 mm 1 m/s 743 mmHg 92%
    05:00 +5°C° 0 mm 1 m/s 743 mmHg 93%
    06:00 +4°C° 0 mm 1 m/s 743 mmHg 94%
    07:00 +5°C° 0 mm 1 m/s 743 mmHg 92%
    08:00 +5°C° 0 mm 1 m/s 743 mmHg 90%
    09:00 +6°C° 0 mm 1 m/s 744 mmHg 87%
    10:00 +6°C° 0 mm 2 m/s 744 mmHg 82%
    11:00 +7°C° 0 mm 2 m/s 744 mmHg 77%
    12:00 +8°C° 0 mm 2 m/s 744 mmHg 72%
    13:00 +8°C° 0 mm 2 m/s 744 mmHg 71%
    14:00 +8°C° 0 mm 2 m/s 744 mmHg 69%
    15:00 +8°C° 0 mm 2 m/s 744 mmHg 68%
    16:00 +7°C° 0 mm 2 m/s 744 mmHg 71%
    17:00 +6°C° 0 mm 2 m/s 744 mmHg 73%
    18:00 +6°C° 0 mm 2 m/s 744 mmHg 76%
    19:00 +5°C° 0 mm 2 m/s 744 mmHg 78%
    20:00 +5°C° 0 mm 2 m/s 745 mmHg 79%
    21:00 +4°C° 0 mm 2 m/s 745 mmHg 81%
    22:00 +4°C° 0 mm 2 m/s 745 mmHg 83%
    23:00 +4°C° 0 mm 2 m/s 745 mmHg 84%

    22 Octombrie, Luni

    Timp Temperatura Precipitaţii Vânt Presiune Umiditate
    00:00 +3°C° 0 mm 2 m/s 745 mmHg 86%
    01:00 +3°C° 0 mm 2 m/s 745 mmHg 87%
    02:00 +3°C° 0 mm 2 m/s 745 mmHg 88%
    03:00 +3°C° 0 mm 2 m/s 745 mmHg 89%
    04:00 +3°C° 0 mm 2 m/s 745 mmHg 90%
    05:00 +2°C° 0 mm 2 m/s 745 mmHg 91%
    06:00 +2°C° 0 mm 2 m/s 745 mmHg 91%
    07:00 +3°C° 0 mm 2 m/s 745 mmHg 89%
    08:00 +4°C° 0 mm 1 m/s 745 mmHg 86%
    09:00 +5°C° 0 mm 1 m/s 745 mmHg 83%
    10:00 +5°C° 0 mm 2 m/s 744 mmHg 76%
    11:00 +7°C° 0 mm 2 m/s 744 mmHg 70%
    12:00 +8°C° 0 mm 2 m/s 744 mmHg 63%
    13:00 +8°C° 0 mm 2 m/s 744 mmHg 60%
    14:00 +9°C° 0 mm 2 m/s 743 mmHg 58%
    15:00 +9°C° 0 mm 2 m/s 743 mmHg 56%
    16:00 +9°C° 0 mm 1 m/s 742 mmHg 60%
    17:00 +9°C° 0 mm 1 m/s 742 mmHg 64%
    18:00 +8°C° 0 mm 1 m/s 742 mmHg 68%
    19:00 +7°C° 0 mm 1 m/s 742 mmHg 70%
    20:00 +7°C° 0 mm 1 m/s 741 mmHg 71%
    21:00 +7°C° 0 mm 1 m/s 741 mmHg 73%
    22:00 +7°C° 0 mm 1 m/s 741 mmHg 74%
    23:00 +7°C° 0 mm 1 m/s 741 mmHg 75%
    Arată mai mult